Погода в Малом Коныпе

Россия / Кировская область     58°26′36″N   50°21′27″E
темп.,
°C
ветер,
м/с
пор.,
м/с
влажн.,
%
обл.,
%
осадки,
мм/ч
давл.,
гПа
погр.,
м
23 апреля, пт
пт2300:00+5ю269566 0.2 1022206
03:00+4ю249726 0.3 102392
06:00+5ю24925 0.0 1024137
09:00+9ю34711 0.0 1025732
12:00+12ююз345652 0.0 10241522
15:00+12ююз2354100 0.1 10241501
18:00+11юв3663100 0.0 1023146
21:00+7юв398981 0.1 1024229
24 апреля, сб
сб2400:00+7юв3886100 0.0 1023254
03:00+7юв4987100 0.0 1022356
06:00+5вюв41087100 0.0 1021470
09:00+8вюв6970100 0.0 1019864
12:00+10вюв5761100 0.0 10171255
15:00+9в5871100 0.0 10151089
18:00+7вюв4986100 0.3 10131211
21:00+6вюв4794100 1.4 10121038
25 апреля, вс
вс2500:00+6вюв5893100 0.4 1009943
03:00+6вюв5992100 1.2 1007929
06:00+5вюв5994100 0.6 1005942
09:00+5вюв5997100 2.4 1003910
12:00+3юз5896100 3.2 1003623
15:00+6юз5979100 4.6 10041122
18:00+5зюз41073100 0.1 10051106
21:00+2юз3108024 0.1 1007329
26 апреля, пн
пн2600:00+2юз513805 0.0 1007745
03:00+2ююз51379100 0.0 1007925
06:00+3юз61380100 0.0 10081218
09:00+5юз71570100 0.1 10081737
12:00+8зюз8145699 0.4 10082089
15:00+9зюз7124624 0.7 10082523
18:00+7зюз5115214 0.1 10091223
21:00+4юз310672 0.2 1010323
27 апреля, вт
вт2700:00+2юз311773 0.0 1010296
03:000юз388613 0.0 1009187
06:00+3юз37748 0.0 1009234
09:00+7юз355413 0.0 10081373
12:00+8зюз3445100 0.3 10061898
15:00+9зюз4645100 0.4 10061667
18:00+6юз596689 0.9 1006484
21:00+4зюз3878100 1.8 1007266